Wind_Speed
48 51 53 56 60 65 68 69 69 70 74 72 69 64 62 60 54 53 54 60 70 74 66 54 45 41 39 35 33 30 34 38 41 39 42 40 41 38 39 44 43 39 43 41
52 54 57 60 65 70 71 72 70 71 69 65 60 56 53 50 51 53 57 65 73 71 57 41 34 29 26 26 28 26 27 30 33 36 36 35 39 40 40 40 34 39 44 42
55 58 62 66 70 74 74 71 68 68 65 62 54 48 47 48 49 53 59 66 69 59 35 24 20 18 18 22 28 22 18 21 26 27 30 32 34 36 40 36 35 37 37 35
60 63 67 70 76 76 74 67 60 59 57 54 51 45 44 45 47 51 57 62 59 43 24 18 14 16 18 21 22 18 12 12 19 18 17 19 20 23 26 29 32 30 31 33
64 68 72 75 78 75 72 64 57 55 52 49 42 37 38 40 45 48 52 54 47 35 22 15 13 17 17 17 18 18 11 9 13 13 14 16 20 23 24 27 30 31 31 30
68 73 76 75 76 71 65 58 52 50 49 48 39 33 34 38 43 43 44 45 37 28 20 15 15 15 16 15 17 17 14 10 12 16 21 26 27 26 27 29 32 33 30 27
71 76 76 74 70 65 58 54 48 46 47 47 39 33 32 36 39 38 36 37 33 25 20 17 16 17 16 15 15 16 17 16 17 19 22 25 27 28 29 31 32 32 29 27
74 76 72 68 61 54 50 47 46 46 46 42 35 31 31 34 35 35 35 33 31 27 22 21 20 18 16 17 18 19 19 21 25 27 28 28 29 30 31 32 33 32 31 30
73 69 65 57 52 48 46 47 48 46 42 36 30 28 31 33 34 36 35 33 31 28 26 25 23 21 21 21 23 24 25 26 28 32 34 33 33 33 34 34 34 35 36 37
67 63 59 52 47 45 47 48 47 42 36 31 27 29 30 30 32 35 36 35 33 32 30 28 27 25 25 26 27 28 30 33 35 36 38 40 40 40 39 38 38 39 41 43
62 58 50 46 45 46 47 45 41 37 33 30 30 30 29 30 33 36 36 36 36 35 35 34 32 30 28 28 29 31 34 37 39 41 43 43 44 46 46 45 46 47 47 47
57 53 48 45 43 46 45 42 38 33 31 31 30 31 31 32 34 35 37 38 38 37 38 37 36 34 33 32 32 34 35 36 38 41 42 44 45 46 48 49 50 50 51 52
50 46 45 42 42 46 43 39 36 33 33 33 33 33 33 33 35 37 40 41 40 39 39 38 37 36 35 34 34 34 36 37 38 39 40 42 44 47 49 50 51 52 52 53
44 42 41 40 43 45 39 35 35 34 35 35 35 35 35 36 38 40 42 42 42 42 42 40 37 35 35 35 35 35 36 37 39 40 42 43 45 46 48 49 51 52 53 54
41 43 43 42 43 41 33 33 36 36 35 36 37 37 38 39 41 42 43 44 44 42 40 39 37 37 37 38 37 38 38 39 40 42 43 45 46 48 49 51 53 55 57 58
40 42 43 43 41 35 30 33 37 37 35 36 37 39 40 41 43 44 44 45 43 41 39 38 39 39 39 40 41 42 43 44 45 47 48 49 51 52 54 56 57 59 61 62
41 43 43 42 38 33 30 33 36 37 36 37 39 41 43 45 45 45 45 44 41 40 40 41 42 43 44 45 47 49 50 52 53 55 56 58 59 60 62 63 65 66 68 69
42 43 42 40 37 33 30 33 37 39 39 40 42 44 45 46 46 45 44 43 43 44 44 45 48 51 54 55 57 59 61 62 63 64 65 66 67 68 69 70 71 72 73 74
41 41 41 40 36 32 31 34 38 40 42 43 45 46 46 45 45 44 44 45 47 49 52 55 57 60 62 64 65 66 66 66 66 67 67 67 68 69 69 69 70 71 72 72
39 40 40 38 34 31 32 35 39 41 43 45 47 47 46 46 46 47 48 51 53 57 61 64 65 66 66 65 63 61 59 58 57 56 56 56 55 55 55 55 56 56 56 57
39 39 38 34 30 29 33 37 40 42 45 47 48 48 47 48 48 50 53 58 62 65 66 66 63 58 54 51 47 45 43 41 40 39 38 37 36 35 34 34 35 35 36 37
37 33 30 27 26 30 34 38 40 44 47 48 47 47 48 49 53 58 61 63 63 60 56 50 45 42 39 37 36 36 34 33 32 30 29 28 27 27 26 26 26 26 26 26
25 23 23 24 27 31 36 39 42 45 46 46 46 47 49 53 58 60 59 55 48 42 38 36 36 36 37 37 36 35 34 33 32 31 31 31 30 30 30 30 29 28 26 25
22 22 23 26 30 34 37 40 43 44 43 43 45 49 54 57 57 52 45 38 35 35 37 39 40 40 40 40 39 39 38 37 36 35 36 36 37 37 36 36 35 33 30 27
22 23 25 28 32 35 38 40 41 41 41 44 48 52 53 50 42 35 32 35 38 41 43 43 44 44 45 45 45 44 43 42 41 40 39 39 39 39 40 40 39 37 35 32
22 24 28 31 33 36 37 38 38 39 42 46 50 49 42 33 30 32 35 38 40 41 43 44 45 46 46 47 48 49 48 47 46 45 43 42 40 40 40 40 39 37 35 34
23 26 29 31 34 35 36 36 38 40 44 47 45 36 28 27 30 33 36 38 41 42 44 46 47 49 50 51 52 52 52 52 51 49 47 45 44 43 40 37 36 37 34 30
Wind_Direction
320 319 318 318 317 314 312 312 311 311 310 313 315 314 314 314 312 311 310 310 312 315 313 310 303 294 286 286 277 279 272 255 244 245 248 248 247 256 262 269 276 267 267 270
319 318 316 316 315 314 315 314 314 313 314 314 314 312 313 314 312 314 315 314 317 319 312 305 301 299 289 282 273 288 278 255 244 237 241 250 252 260 265 267 259 258 262 268
317 316 316 317 316 315 315 316 316 315 314 314 315 315 318 318 319 322 321 323 326 328 322 308 308 307 295 284 281 299 288 242 235 232 239 245 255 260 260 256 253 255 261 265
317 317 318 317 314 315 316 318 315 313 312 314 316 317 321 321 324 328 327 330 334 339 338 328 329 326 317 299 292 310 301 228 216 228 240 252 258 256 250 248 250 250 254 256
317 318 317 315 315 318 318 318 316 313 313 313 311 310 319 323 328 329 331 336 341 345 343 341 344 337 323 307 300 312 308 246 217 220 232 243 249 253 254 254 247 248 252 252
318 318 316 316 317 318 318 321 319 314 313 315 313 313 320 328 331 332 335 341 345 350 357 353 339 324 315 311 307 305 299 265 234 236 236 238 245 255 259 253 249 250 251 253
319 317 316 318 319 320 322 323 319 315 314 315 314 314 319 326 328 330 332 339 341 341 341 337 329 318 306 294 293 294 288 267 248 244 252 256 259 265 264 260 257 253 254 259
320 319 320 322 321 323 324 323 320 317 314 311 310 312 318 324 325 327 329 333 336 333 326 321 321 317 306 295 286 281 282 273 264 258 260 264 264 265 265 264 264 259 260 266
320 320 322 323 323 327 325 323 320 317 313 310 310 317 323 326 325 327 328 329 329 328 324 317 311 307 302 295 288 281 276 277 276 267 262 262 263 267 269 269 268 266 268 271
320 321 324 323 325 327 325 323 324 322 319 314 318 322 323 324 324 327 327 325 323 322 321 319 314 307 297 290 287 283 278 274 274 274 270 267 266 268 269 271 271 270 271 273
320 322 324 322 325 330 331 330 330 330 325 320 322 322 321 323 324 325 326 324 321 318 316 313 310 306 300 293 288 285 282 278 275 272 270 270 271 271 269 268 270 272 271 271
322 324 326 327 329 332 333 331 333 332 326 326 326 323 323 325 326 327 328 326 321 317 315 312 307 303 300 296 291 287 284 283 280 277 276 275 273 272 271 269 269 270 271 271
323 326 329 331 332 333 330 330 332 331 327 326 325 324 324 326 326 327 327 325 322 319 317 314 311 307 304 301 297 293 289 285 283 281 279 278 277 275 274 273 273 272 271 272
322 327 331 330 329 332 330 331 334 331 327 325 324 325 326 326 325 324 324 323 322 319 316 314 312 311 308 305 302 300 296 292 288 285 282 279 277 275 274 273 273 273 272 271
322 326 331 331 330 332 332 335 337 332 328 326 325 326 326 325 322 322 321 320 318 317 314 313 313 312 311 308 305 302 299 296 293 290 287 285 282 280 278 276 275 274 274 274
320 325 330 332 329 329 328 335 338 334 328 325 325 325 325 323 322 322 320 318 318 317 316 315 314 313 311 308 306 303 299 296 293 290 288 285 283 282 280 278 277 276 275 275
322 325 327 328 326 324 323 332 336 335 330 326 325 325 325 324 323 322 321 321 320 318 317 315 313 312 311 309 306 303 300 297 295 292 290 287 285 283 281 279 278 277 276 275
322 324 326 326 324 322 322 329 333 333 331 329 327 326 326 325 324 323 322 322 321 319 318 316 315 313 311 308 305 302 299 296 293 291 289 287 285 283 282 281 280 279 278 277
322 322 324 325 323 321 322 326 329 330 329 327 327 327 326 326 325 324 323 322 322 320 318 317 314 311 309 306 304 302 299 297 295 294 292 290 289 287 286 285 283 282 281 280
320 321 323 323 320 320 322 324 327 328 327 327 327 327 327 325 325 325 325 324 322 320 318 316 315 313 311 309 308 306 305 304 302 301 299 298 296 294 293 291 289 288 286 285
317 319 322 320 320 320 322 325 327 327 327 327 328 329 328 327 327 327 326 324 323 322 320 320 319 319 319 320 321 321 321 321 320 319 317 316 314 313 312 310 308 305 302 299
315 318 320 319 320 323 325 327 327 326 327 328 329 330 330 330 330 329 328 326 326 327 329 331 335 339 343 345 347 348 349 349 349 349 349 349 349 348 347 345 341 336 328 322
329 326 323 323 325 327 327 327 327 328 330 331 333 333 334 333 331 331 332 335 339 345 353 0 6 9 10 10 9 8 8 8 9 10 12 12 12 11 8 5 0 354 346 338
332 330 328 328 327 327 327 328 330 332 334 336 337 336 335 335 336 340 348 0 13 23 30 32 32 31 29 27 25 23 22 21 20 21 22 22 21 19 17 14 10 5 360 353
331 330 328 327 326 327 330 332 335 337 339 339 338 338 338 343 353 10 29 41 45 46 45 44 41 39 37 34 32 30 27 25 23 23 22 20 19 17 14 10 7 5 2 359
327 327 327 327 329 332 334 337 340 341 341 341 340 343 351 9 35 50 53 51 50 49 47 45 43 41 40 38 36 34 31 28 24 21 18 16 13 10 7 3 359 356 356 356
324 326 327 330 333 336 339 341 342 343 343 343 346 357 23 51 60 58 56 55 54 53 51 49 47 46 44 42 40 38 36 33 30 27 24 20 16 9 1 355 351 348 349 350
Height
5722 5715 5707 5700 5692 5680 5667 5654 5642 5633 5621 5609 5598 5584 5573 5564 5554 5546 5536 5526 5514 5501 5488 5479 5471 5465 5463 5461 5460 5459 5457 5458 5463 5468 5474 5480 5485 5488 5490 5492 5496 5497 5496 5496
5714 5705 5697 5689 5678 5664 5652 5636 5625 5612 5603 5595 5586 5572 5564 5554 5543 5534 5524 5512 5498 5482 5468 5461 5457 5455 5452 5452 5451 5450 5447 5445 5450 5457 5463 5469 5474 5477 5479 5482 5484 5485 5485 5486
5703 5693 5684 5676 5664 5651 5638 5621 5610 5598 5589 5579 5575 5563 5553 5543 5534 5523 5512 5498 5482 5465 5452 5450 5449 5449 5447 5446 5445 5444 5441 5440 5443 5449 5455 5460 5463 5466 5469 5473 5474 5475 5476 5476
5692 5682 5671 5659 5645 5637 5629 5614 5599 5587 5576 5567 5559 5552 5545 5535 5526 5516 5504 5490 5474 5460 5453 5449 5447 5445 5444 5443 5442 5440 5438 5437 5439 5443 5448 5452 5454 5458 5461 5464 5465 5466 5466 5466
5680 5669 5659 5644 5630 5619 5610 5606 5590 5577 5567 5558 5553 5547 5539 5530 5520 5509 5498 5485 5471 5460 5454 5450 5446 5444 5442 5441 5440 5438 5437 5436 5438 5440 5443 5446 5450 5452 5453 5454 5456 5457 5458 5458
5666 5655 5643 5629 5615 5603 5594 5587 5576 5565 5555 5547 5540 5536 5531 5522 5514 5505 5495 5484 5473 5463 5456 5451 5447 5444 5441 5440 5439 5437 5436 5435 5436 5438 5441 5442 5444 5445 5445 5446 5447 5448 5448 5449
5652 5639 5628 5616 5601 5590 5581 5575 5565 5555 5546 5538 5531 5527 5522 5516 5508 5500 5492 5482 5473 5465 5458 5451 5446 5442 5440 5439 5438 5436 5435 5434 5435 5435 5437 5437 5437 5437 5437 5438 5438 5439 5440 5440
5640 5626 5616 5601 5589 5579 5571 5561 5552 5545 5537 5530 5524 5520 5515 5510 5503 5496 5487 5479 5471 5463 5456 5450 5445 5441 5438 5436 5435 5433 5432 5431 5431 5430 5430 5430 5429 5429 5429 5429 5429 5429 5429 5428
5629 5618 5602 5590 5579 5571 5561 5552 5544 5536 5529 5521 5517 5512 5508 5502 5496 5490 5483 5475 5468 5461 5454 5448 5443 5438 5435 5432 5429 5428 5426 5425 5424 5423 5422 5421 5420 5419 5418 5418 5417 5417 5417 5417
5618 5607 5596 5583 5574 5565 5555 5545 5537 5527 5520 5515 5510 5506 5501 5496 5490 5484 5477 5470 5464 5458 5451 5445 5439 5434 5429 5426 5423 5420 5418 5416 5414 5412 5411 5410 5408 5407 5406 5405 5404 5403 5403 5402
5605 5596 5588 5576 5566 5557 5548 5538 5530 5522 5515 5510 5506 5501 5496 5491 5484 5478 5471 5465 5458 5452 5445 5439 5433 5428 5423 5419 5416 5412 5409 5406 5403 5401 5399 5397 5396 5394 5393 5391 5390 5389 5388 5386
5593 5583 5575 5567 5557 5549 5541 5533 5525 5518 5512 5506 5501 5497 5491 5485 5478 5472 5465 5458 5451 5444 5437 5430 5424 5419 5414 5410 5406 5402 5398 5395 5392 5389 5386 5383 5381 5380 5378 5377 5375 5373 5371 5370
5583 5575 5566 5557 5549 5542 5534 5527 5520 5513 5508 5502 5497 5491 5485 5479 5472 5466 5458 5451 5443 5436 5429 5422 5416 5410 5405 5400 5395 5391 5387 5384 5380 5377 5373 5370 5367 5364 5362 5360 5358 5356 5354 5352
5572 5566 5560 5552 5544 5537 5529 5522 5515 5508 5503 5497 5491 5484 5478 5472 5466 5459 5451 5443 5435 5427 5420 5413 5407 5401 5395 5390 5385 5381 5376 5372 5368 5364 5361 5357 5353 5349 5346 5343 5339 5337 5335 5333
5565 5558 5552 5545 5538 5531 5524 5518 5511 5504 5498 5492 5485 5478 5471 5465 5459 5451 5443 5435 5426 5418 5411 5404 5398 5392 5386 5380 5375 5370 5364 5359 5355 5350 5345 5341 5336 5332 5328 5324 5321 5317 5314 5310
5561 5553 5546 5539 5533 5526 5521 5515 5508 5500 5493 5487 5480 5473 5466 5459 5451 5443 5435 5426 5418 5410 5402 5395 5388 5382 5375 5369 5363 5357 5351 5345 5340 5334 5328 5323 5318 5313 5308 5303 5299 5295 5291 5287
5555 5548 5541 5534 5528 5522 5516 5510 5503 5496 5489 5482 5475 5467 5459 5451 5443 5434 5425 5416 5408 5401 5394 5386 5378 5370 5364 5357 5350 5342 5335 5328 5321 5315 5308 5302 5296 5290 5285 5279 5274 5270 5266 5261
5547 5541 5535 5529 5523 5516 5510 5504 5497 5490 5483 5476 5468 5460 5452 5443 5434 5425 5416 5407 5398 5391 5383 5375 5366 5357 5348 5341 5332 5324 5315 5307 5299 5291 5284 5277 5270 5263 5257 5252 5246 5242 5237 5233
5541 5534 5528 5523 5517 5510 5504 5498 5491 5484 5477 5469 5461 5453 5445 5436 5426 5417 5408 5398 5389 5379 5370 5361 5351 5341 5331 5320 5310 5300 5291 5281 5272 5264 5256 5249 5242 5235 5229 5223 5218 5212 5207 5203
5534 5527 5521 5516 5510 5505 5499 5493 5486 5479 5471 5463 5455 5446 5437 5427 5417 5407 5397 5387 5378 5367 5356 5344 5333 5321 5309 5298 5287 5276 5266 5257 5248 5240 5232 5224 5217 5209 5203 5197 5191 5186 5181 5176
5526 5520 5515 5510 5504 5499 5494 5488 5480 5473 5465 5456 5447 5438 5428 5418 5409 5399 5388 5376 5363 5351 5338 5325 5313 5301 5290 5279 5269 5259 5250 5241 5232 5224 5216 5208 5200 5193 5187 5180 5175 5169 5164 5158
5517 5513 5508 5504 5499 5494 5489 5482 5475 5467 5459 5449 5440 5430 5420 5410 5398 5387 5376 5363 5350 5336 5323 5311 5300 5290 5280 5270 5261 5252 5243 5234 5226 5217 5209 5202 5194 5187 5180 5173 5167 5161 5155 5150
5512 5508 5504 5500 5495 5490 5484 5477 5469 5461 5452 5442 5432 5422 5412 5402 5391 5378 5365 5351 5339 5328 5317 5307 5298 5288 5279 5270 5262 5253 5243 5234 5226 5217 5209 5201 5193 5186 5179 5172 5165 5159 5153 5147
5510 5506 5501 5497 5492 5486 5479 5471 5464 5455 5445 5436 5426 5416 5406 5394 5381 5368 5357 5347 5337 5328 5319 5311 5302 5294 5285 5276 5266 5257 5247 5238 5229 5220 5211 5202 5194 5187 5179 5172 5165 5158 5151 5144
5508 5503 5498 5493 5487 5481 5474 5466 5458 5449 5440 5431 5421 5411 5399 5387 5376 5366 5358 5351 5342 5334 5327 5319 5311 5302 5292 5283 5273 5262 5253 5243 5233 5223 5214 5205 5196 5188 5180 5172 5165 5158 5150 5143
5505 5500 5495 5489 5483 5476 5469 5461 5453 5444 5435 5426 5416 5405 5394 5385 5378 5371 5364 5357 5350 5343 5335 5328 5319 5310 5300 5290 5279 5269 5258 5248 5237 5227 5216 5207 5198 5189 5181 5173 5165 5157 5150 5142
5502 5497 5492 5486 5479 5472 5465 5457 5449 5441 5432 5422 5412 5402 5394 5389 5383 5378 5372 5365 5358 5351 5344 5336 5328 5318 5308 5297 5287 5276 5265 5254 5243 5232 5221 5210 5200 5190 5181 5173 5164 5155 5148 5141